EW2946 Weather Reports


time (UTC)temp
F
wind
direction
speed
knots
gust
knots
rain 1hr
in
rain 24hr
in
rain mn
in
humidity
%
barometer
mb
20260505171528 56 248 0.9 2.6 0.00 0.00 0.00 75 1015.5
20260505170028 56 327 0.9 2.6 0.00 0.00 0.00 76 1015.4
20260505164544 55 84 0.9 1.7 0.00 0.00 0.00 79 1015.3
20260505163020 54 60 0.9 2.6 0.00 0.00 0.00 81 1015.3
20260505161517 53 286 0.0 0.9 0.00 0.00 0.00 82 1015.3
20260505153010 52 289 0.0 0.9 0.00 0.00 0.00 87 1015.3
20260505151503 51 289 0.0 0.0 0.00 0.00 0.00 87 1015.2
20260505124548 50 289 0.0 0.9 0.00 0.00 0.00 89 1014.3
20260505123046 50 289 0.0 0.9 0.00 0.00 0.00 89 1014.3
20260505121545 50 289 0.0 0.0 0.00 0.00 0.00 89 1014.3
20260505120044 50 289 0.0 0.9 0.00 0.00 0.00 89 1014.5
20260505114546 50 289 0.0 0.9 0.00 0.00 0.00 89 1014.4
20260505113044 50 289 0.0 0.9 0.00 0.00 0.00 89 1014.5
20260505111551 50 289 0.0 0.9 0.00 0.00 0.00 89 1014.3
20260505101541 50 289 0.0 0.9 0.00 0.00 0.00 88 1014.3
20260505100049 50 289 0.0 0.0 0.00 0.00 0.00 88 1014.3
20260505094539 50 289 0.0 1.7 0.00 0.00 0.00 88 1014.5
20260505093039 50 289 0.0 0.0 0.00 0.00 0.00 88 1014.4
20260505091550 50 289 0.0 0.9 0.00 0.00 0.00 88 1014.8
20260505090050 50 289 0.0 0.0 0.00 0.00 0.00 88 1014.9
20260505084537 50 289 0.0 0.9 0.00 0.00 0.00 88 1014.9
20260505083041 50 289 0.0 0.9 0.00 0.00 0.00 88 1014.9
20260505081549 50 289 0.0 0.9 0.00 0.00 0.00 88 1015.0
20260505080041 50 289 0.0 0.9 0.00 0.00 0.00 88 1015.1
20260505074530 50 289 0.0 0.9 0.00 0.00 0.00 88 1015.1
20260505073029 50 289 0.0 0.9 0.00 0.00 0.00 87 1015.0
20260505071529 50 289 0.0 0.0 0.00 0.00 0.00 87 1014.8
20260505070027 50 289 0.0 0.9 0.00 0.00 0.00 87 1014.9
20260505064525 50 289 0.0 1.7 0.00 0.00 0.00 86 1014.8
20260505063033 51 289 0.0 0.9 0.00 0.00 0.00 85 1014.6
20260505061530 51 289 0.0 0.9 0.00 0.00 0.00 84 1014.7
20260505060023 52 289 0.0 0.9 0.00 0.00 0.00 82 1014.8
20260505054526 53 289 0.0 0.0 0.00 0.00 0.00 80 1014.9
20260505053022 53 289 0.0 0.9 0.00 0.00 0.00 79 1015.1
20260505051521 53 343 0.0 1.7 0.00 0.00 0.00 80 1015.1
20260505041519 53 355 0.0 0.9 0.00 0.00 0.00 81 1014.8
20260505040018 53 360 0.0 0.9 0.00 0.00 0.00 81 1014.5
20260505034519 53 360 0.0 0.9 0.00 0.00 0.00 81 1014.3
20260505033030 53 360 0.0 0.9 0.00 0.00 0.00 79 1014.0
20260505031517 54 9 0.0 0.0 0.00 0.00 0.00 77 1014.2
20260505030017 55 22 0.0 0.9 0.00 0.00 0.00 73 1014.1
20260505024538 57 57 0.0 0.9 0.00 0.00 0.00 71 1014.1
20260505023016 57 57 0.0 1.7 0.00 0.00 0.00 69 1013.9
20260505021533 58 321 0.0 2.6 0.00 0.00 0.00 68 1013.9
20260505020015 58 267 0.0 2.6 0.00 0.00 0.00 67 1013.8
20260505014518 59 300 0.0 1.7 0.00 0.00 0.00 64 1013.8
20260505013013 59 267 1.7 6.1 0.00 0.00 0.00 63 1014.0
20260505011512 60 250 1.7 4.3 0.00 0.00 0.00 60 1014.1
20260505010021 60 261 1.7 4.3 0.00 0.00 0.00 61 1014.2
20260505004521 61 276 0.9 4.3 0.00 0.00 0.00 58 1014.3
20260505003010 62 355 1.7 5.2 0.00 0.00 0.00 58 1014.2
20260505001510 62 236 1.7 7.8 0.00 0.00 0.00 56 1014.2
20260505000011 63 347 1.7 6.1 0.00 0.00 0.00 62 1014.0
20260504234509 63 192 0.9 6.1 0.00 0.00 0.00 60 1014.1
20260504233008 63 198 0.9 7.8 0.00 0.00 0.00 59 1014.1
20260504231507 63 243 1.7 5.2 0.00 0.00 0.00 59 1014.1
20260504230006 63 202 0.9 4.3 0.00 0.00 0.00 61 1014.2
20260504224508 64 238 0.9 6.1 0.00 0.00 0.00 58 1014.1
20260504223105 65 184 0.9 7.8 0.00 0.00 0.00 60 1014.3
20260504221502 65 250 2.6 5.2 0.00 0.00 0.00 58 1014.5
20260504220002 64 255 1.7 6.1 0.00 0.00 0.00 59 1014.8
20260504214503 64 355 1.7 4.3 0.00 0.00 0.00 59 1014.9
20260504213002 63 355 0.0 4.3 0.00 0.00 0.00 67 1015.0
20260504211601 61 230 0.0 3.5 0.00 0.00 0.00 67 1015.2
20260504211501 61 162 0.0 3.5 0.00 0.00 0.00 65 1015.2
20260504210104 61 292 0.0 3.5 0.00 0.00 0.00 65 1015.2
20260504204618 64 36 0.0 3.5 0.00 0.00 0.00 58 1015.0
20260504203059 62 303 0.0 7.0 0.00 0.00 0.00 63 1015.1
20260504201609 64 247 1.7 6.1 0.00 0.00 0.00 61 1015.1
20260504200109 64 145 2.6 6.1 0.00 0.00 0.00 59 1015.1
20260504194555 62 178 3.5 7.8 0.00 0.00 0.00 64 1015.1
20260504193054 61 103 0.9 6.1 0.00 0.00 0.00 70 1015.3
20260504191553 61 166 0.9 7.8 0.00 0.00 0.00 69 1015.3
20260504190052 59 209 0.9 4.3 0.00 0.00 0.00 73 1015.4
20260504184557 59 242 0.9 4.3 0.00 0.00 0.00 72 1015.5
20260504183051 60 342 0.9 3.5 0.00 0.00 0.00 70 1015.5
20260504181553 60 311 0.9 4.3 0.00 0.00 0.00 72 1015.3
20260504180049 59 260 0.0 4.3 0.00 0.00 0.00 71 1015.2
20260504174549 59 225 0.0 6.1 0.00 0.00 0.00 72 1015.1
20260504173046 61 329 1.7 5.2 0.00 0.00 0.00 69 1014.9